CZ-6A DEB

Satellite information

Favourite Embed

Satellite Type and Status

DEBRISIN ORBIT

Key statistics

Satellite CZ-6A DEB at a glance.

Uptime

494

Days in orbit

Revolutions

≈ 14.7

Per day

Orbit

LEO

Low Earth Orbit

Inclination

89.1

Latest

Satellite identification and parameters

Extended collection of information and parameters for CZ-6A DEB.

Object identification

Identified? True

Debris? True

Object name: CZ-6A DEB

International designator: 2024-140SY

Object number (NORAD): 61287

Object ID (CCSDS): 61287

Country: PEOPLES REPUBLIC OF CHINA (PRC)

Current information (Y/N): Y

RCS size: SMALL

Orbital parameters

Period: 98.261 minutes

Inclination: 89.0583 deg

SMA: 7053.671 km

Apoapsis: 747.764 km

Periapsis: 603.307 km

RAAN: 295.7459 deg

Eccentricy: 0.01023986

Argument of periapsis: 166.1163 deg

Mean anomaly: 194.2908 deg

Mean motion: 14.6548035 rev/day

Mean motion (dot): 0.00010868 rev/day2

B* drag term: 0.0018530566 1/REarth

Two-line elements (TLE)

Creation date: Dec. 12, 2025, 3:16 a.m.

Reference frame: TEME

Reference center: EARTH

Epoch: Dec. 11, 2025, 8:10 p.m. UTC

TLE line 0: 0 CZ-6A DEB

TLE line 1: 1 61287U 24140SY 25345.84085747 .00010868 00000-0 18531-2 0 9990

TLE line 2: 2 61287 89.0583 295.7459 0102399 166.1163 194.2908 14.65480350 68876

Live tracking on map

Real-time ground track for satellite CZ-6A DEB.

In-orbit conjunctions

A list of the most updated potential collisions computed for object CZ-6A DEB.

Target Orbit TCA Probability of collision Miss distance Type
COSMOS 1275 DEB LEO 2025-02-08 09:54:21 0.0001490504 791.0 (m) DEBRIS
COSMOS 1678 DEB * LEO 2025-01-19 05:25:54 0.0004712236 324.0 (m) DEBRIS
IRIDIUM 33 DEB LEO 2024-12-30 01:25:04 0.0001587036 144.0 (m) DEBRIS
PICOSAT 6 SSO 2024-11-30 00:09:23 0.001387508 191.0 (m) PAYLOAD
SL-8 R/B LEO 2024-11-24 17:24:15 0.0001104181 661.0 (m) ROCKET BODY

Associated space launch

18 Low Earth Orbit communication satellites with Ku, Q and V band payloads for the G60 constellation operated by Shanghai Spacecom Satellite Technology (SSST) with funding backed by the Shanghai local government. Initial constellation will consist of 1296 satellites by 2027 with long term plans to expand it to 12000 satellites.

CZ-6A DEB was lifted into orbit during the mission ‘Long March 6A | G60 Polar Group 01’, on board a Long March 6A space rocket.

The launch took place on Aug. 6, 2024, 6:42 a.m. from Launch Complex 9A.

For more information about the launch, click the button.

Launch to space Long March 6A | G60 Polar Group 01
Long March 6A | G60 Polar Group 01

Agency: N/A

Status: Launch Successful

Launch date: Aug. 6, 2024, 6:42 a.m. UTC

Rocket: Long March 6A

Launch pad: Launch Complex 9A

Location: Taiyuan Satellite Launch Center, People's Republic of China

...

Latest news about this satellite

News about space launch
Brightness of first Chinese broadband constellation satellites alarms astronomers

The first satellites of a Chinese broadband constellation are significantly brighter than those of Western systems, posing a new challenge for astronomers.

News about space launch
Chinese rocket stage breaks up into cloud of more than 700 pieces of space debris

HELSINKI — A Chinese Long March 6A rocket’s upper stage has fragmented into a cloud of over 700 pieces of space debris, adding to concerns about long-term orbital safety. China […]

News about space launch
China's Thousand Sails Megaconstellation Kicks Off with Dangerous Debris Field

China's Thousand Sails Megaconstellation Kicks Off with Dangerous Debris Field


Newsletter sign-up

Weekly statistics, charts and insights to help you stay on top of the space industry.